Time,TemperatureF,DewpointF,PressureIn,WindDirection,WindDirectionDegrees,WindSpeedMPH,WindSpeedGustMPH,Humidity,HourlyPrecipIn,Conditions,Clouds,dailyrainin,SoftwareType,DateUTC
2013-07-09 00:02:00,84.0,65.0,30.01,SSE,163,4.0,8.0,53,0.00,,,0.00,,2013-07-09 05:02:00,
2013-07-09 00:11:00,84.0,66.0,30.01,South,175,5.0,8.0,54,0.00,,,0.00,,2013-07-09 05:11:00,
2013-07-09 00:22:00,83.0,65.0,30.01,South,173,3.0,9.0,55,0.00,,,0.00,,2013-07-09 05:22:00,
2013-07-09 00:33:00,83.0,66.0,30.01,South,173,3.0,6.0,56,0.00,,,0.00,,2013-07-09 05:33:00,
2013-07-09 00:42:00,83.0,66.0,30.01,South,172,2.0,6.0,56,0.00,,,0.00,,2013-07-09 05:42:00,
2013-07-09 00:52:00,83.0,66.0,30.01,South,172,2.0,6.0,57,0.00,,,0.00,,2013-07-09 05:52:00,
2013-07-09 01:01:00,82.0,66.0,30.00,South,172,2.0,3.0,58,0.00,,,0.00,,2013-07-09 06:01:00,
2013-07-09 01:11:00,82.0,66.0,30.00,South,172,1.0,6.0,59,0.00,,,0.00,,2013-07-09 06:11:00,
2013-07-09 01:22:00,82.0,67.0,30.01,SE,138,4.0,9.0,60,0.00,,,0.00,,2013-07-09 06:22:00,
2013-07-09 01:33:00,81.0,66.0,30.01,SSE,156,5.0,10.0,61,0.00,,,0.00,,2013-07-09 06:33:00,
2013-07-09 01:43:00,81.0,66.0,30.01,SSE,151,5.0,8.0,61,0.00,,,0.00,,2013-07-09 06:43:00,
2013-07-09 01:53:00,81.0,66.0,30.01,SSE,153,5.0,9.0,61,0.00,,,0.00,,2013-07-09 06:53:00,
2013-07-09 02:02:00,80.0,66.0,30.01,SSE,159,4.0,9.0,62,0.00,,,0.00,,2013-07-09 07:02:00,
2013-07-09 02:11:00,80.0,66.0,30.01,SSE,154,5.0,9.0,63,0.00,,,0.00,,2013-07-09 07:11:00,
2013-07-09 02:22:00,80.0,66.0,30.01,SSE,153,4.0,9.0,63,0.00,,,0.00,,2013-07-09 07:22:00,
2013-07-09 02:33:00,80.0,67.0,30.01,SSE,152,5.0,10.0,64,0.00,,,0.00,,2013-07-09 07:33:00,
2013-07-09 02:43:00,80.0,67.0,30.01,SSE,163,5.0,9.0,65,0.00,,,0.00,,2013-07-09 07:43:00,
2013-07-09 02:53:00,80.0,67.0,30.01,SSE,165,4.0,10.0,65,0.00,,,0.00,,2013-07-09 07:53:00,
2013-07-09 03:01:00,80.0,68.0,30.01,SSE,159,3.0,7.0,66,0.00,,,0.00,,2013-07-09 08:01:00,
2013-07-09 03:11:00,79.0,67.0,30.01,SSE,165,3.0,10.0,67,0.00,,,0.00,,2013-07-09 08:11:00,
2013-07-09 03:22:00,79.0,67.0,30.01,SSE,162,4.0,8.0,67,0.00,,,0.00,,2013-07-09 08:22:00,
2013-07-09 03:33:00,79.0,68.0,30.01,SSE,151,3.0,7.0,68,0.00,,,0.00,,2013-07-09 08:33:00,
2013-07-09 03:43:00,79.0,68.0,30.01,SSE,157,2.0,9.0,69,0.00,,,0.00,,2013-07-09 08:43:00,
2013-07-09 03:52:00,79.0,68.0,30.01,SSE,160,5.0,7.0,70,0.00,,,0.00,,2013-07-09 08:52:00,
2013-07-09 04:02:00,79.0,69.0,30.01,SSE,159,3.0,7.0,71,0.00,,,0.00,,2013-07-09 09:02:00,
2013-07-09 04:11:00,78.0,68.0,30.01,SSE,156,4.0,9.0,72,0.00,,,0.00,,2013-07-09 09:11:00,
2013-07-09 04:22:00,78.0,68.0,30.01,SSE,153,7.0,10.0,72,0.00,,,0.00,,2013-07-09 09:22:00,
2013-07-09 04:34:00,78.0,69.0,30.01,SSE,152,4.0,8.0,73,0.00,,,0.00,,2013-07-09 09:34:00,
2013-07-09 04:42:00,78.0,69.0,30.01,SSE,150,4.0,7.0,73,0.00,,,0.00,,2013-07-09 09:42:00,
2013-07-09 04:52:00,77.0,68.0,30.01,SSE,148,5.0,9.0,74,0.00,,,0.00,,2013-07-09 09:52:00,
2013-07-09 05:01:00,77.0,68.0,30.01,SSE,150,3.0,8.0,74,0.00,,,0.00,,2013-07-09 10:01:00,
2013-07-09 05:22:00,77.0,69.0,30.01,SSE,151,5.0,9.0,76,0.00,,,0.00,,2013-07-09 10:22:00,
2013-07-09 05:33:00,77.0,69.0,30.01,SSE,150,5.0,8.0,77,0.00,,,0.00,,2013-07-09 10:33:00,
2013-07-09 05:42:00,76.0,68.0,30.02,SSE,147,5.0,10.0,77,0.00,,,0.00,,2013-07-09 10:42:00,
2013-07-09 05:52:00,76.0,69.0,30.01,SSE,152,5.0,7.0,78,0.00,,,0.00,,2013-07-09 10:52:00,
2013-07-09 06:01:00,76.0,69.0,30.02,SSE,147,7.0,9.0,79,0.00,,,0.00,,2013-07-09 11:01:00,
2013-07-09 06:11:00,76.0,69.0,30.02,SSE,148,5.0,9.0,79,0.00,,,0.00,,2013-07-09 11:11:00,
2013-07-09 06:22:00,76.0,69.0,30.02,SSE,149,5.0,8.0,80,0.00,,,0.00,,2013-07-09 11:22:00,
2013-07-09 06:33:00,76.0,70.0,30.02,SSE,150,4.0,8.0,81,0.00,,,0.00,,2013-07-09 11:33:00,
2013-07-09 06:42:00,76.0,70.0,30.03,SSE,150,3.0,6.0,81,0.00,,,0.00,,2013-07-09 11:42:00,
2013-07-09 06:53:00,75.0,69.0,30.03,SSE,153,6.0,10.0,82,0.00,,,0.00,,2013-07-09 11:53:00,
2013-07-09 07:02:00,75.0,69.0,30.03,SSE,153,5.0,10.0,83,0.00,,,0.00,,2013-07-09 12:02:00,
2013-07-09 07:11:00,75.0,69.0,30.03,SSE,150,3.0,7.0,83,0.00,,,0.00,,2013-07-09 12:11:00,
2013-07-09 07:22:00,76.0,71.0,30.03,SSE,148,6.0,10.0,84,0.00,,,0.00,,2013-07-09 12:22:00,
2013-07-09 07:33:00,76.0,71.0,30.03,SSE,150,3.0,8.0,84,0.00,,,0.00,,2013-07-09 12:33:00,
2013-07-09 07:43:00,76.0,71.0,30.03,SSE,149,5.0,10.0,84,0.00,,,0.00,,2013-07-09 12:43:00,
2013-07-09 07:52:00,76.0,71.0,30.04,SE,145,7.0,12.0,84,0.00,,,0.00,,2013-07-09 12:52:00,
2013-07-09 08:01:00,77.0,72.0,30.04,SSE,159,6.0,12.0,84,0.00,,,0.00,,2013-07-09 13:01:00,
2013-07-09 08:11:00,77.0,72.0,30.04,SSE,162,6.0,9.0,84,0.00,,,0.00,,2013-07-09 13:11:00,
2013-07-09 08:21:00,78.0,72.0,30.04,South,190,7.0,12.0,83,0.00,,,0.00,,2013-07-09 13:21:00,
2013-07-09 08:33:00,79.0,73.0,30.05,South,183,5.0,13.0,83,0.00,,,0.00,,2013-07-09 13:33:00,
2013-07-09 08:43:00,79.0,73.0,30.05,South,181,8.0,14.0,81,0.00,,,0.00,,2013-07-09 13:43:00,
2013-07-09 08:53:00,80.0,72.0,30.05,South,175,10.0,15.0,78,0.00,,,0.00,,2013-07-09 13:53:00,
2013-07-09 09:01:00,81.0,73.0,30.05,South,173,10.0,15.0,76,0.00,,,0.00,,2013-07-09 14:01:00,
2013-07-09 09:11:00,81.0,72.0,30.06,SSE,161,6.0,21.0,75,0.00,,,0.00,,2013-07-09 14:11:00,
2013-07-09 09:22:00,82.0,72.0,30.06,SSW,202,12.0,18.0,71,0.00,,,0.00,,2013-07-09 14:22:00,
2013-07-09 09:34:00,82.0,71.0,30.06,South,183,10.0,18.0,70,0.00,,,0.00,,2013-07-09 14:34:00,
2013-07-09 09:43:00,83.0,71.0,30.06,South,185,12.0,20.0,68,0.00,,,0.00,,2013-07-09 14:43:00,
2013-07-09 09:53:00,83.0,72.0,30.06,South,184,6.0,13.0,69,0.00,,,0.00,,2013-07-09 14:53:00,
2013-07-09 10:01:00,84.0,72.0,30.06,South,178,8.0,13.0,67,0.00,,,0.00,,2013-07-09 15:01:00,
2013-07-09 10:11:00,84.0,72.0,30.06,South,188,7.0,18.0,67,0.00,,,0.00,,2013-07-09 15:11:00,
2013-07-09 10:22:00,85.0,71.0,30.06,South,178,12.0,20.0,63,0.00,,,0.00,,2013-07-09 15:22:00,
2013-07-09 10:33:00,85.0,71.0,30.06,South,184,7.0,15.0,63,0.00,,,0.00,,2013-07-09 15:33:00,
2013-07-09 10:43:00,85.0,70.0,30.06,South,169,9.0,20.0,60,0.00,,,0.00,,2013-07-09 15:43:00,
2013-07-09 10:52:00,86.0,70.0,30.06,SSW,192,11.0,20.0,60,0.00,,,0.00,,2013-07-09 15:52:00,
2013-07-09 11:02:00,87.0,71.0,30.06,SSW,207,9.0,14.0,59,0.00,,,0.00,,2013-07-09 16:02:00,
2013-07-09 11:11:00,87.0,71.0,30.06,South,181,7.0,20.0,59,0.00,,,0.00,,2013-07-09 16:11:00,
2013-07-09 11:22:00,87.0,69.0,30.06,SSW,196,9.0,18.0,56,0.00,,,0.00,,2013-07-09 16:22:00,
2013-07-09 11:34:00,88.0,70.0,30.06,SSW,194,12.0,21.0,55,0.00,,,0.00,,2013-07-09 16:34:00,
2013-07-09 11:43:00,89.0,70.0,30.06,SSW,200,10.0,20.0,54,0.00,,,0.00,,2013-07-09 16:43:00,
2013-07-09 11:52:00,89.0,70.0,30.05,SSE,162,5.0,10.0,54,0.00,,,0.00,,2013-07-09 16:52:00,
2013-07-09 12:02:00,89.0,70.0,30.06,South,191,9.0,18.0,53,0.00,,,0.00,,2013-07-09 17:02:00,
2013-07-09 12:11:00,90.0,69.0,30.04,SSE,158,9.0,14.0,51,0.00,,,0.00,,2013-07-09 17:11:00,
2013-07-09 12:22:00,90.0,69.0,30.05,South,169,7.0,18.0,50,0.00,,,0.00,,2013-07-09 17:22:00,
2013-07-09 12:35:00,91.0,68.0,30.04,SSE,165,13.0,24.0,47,0.00,,,0.00,,2013-07-09 17:35:00,
2013-07-09 12:45:00,91.0,68.0,30.04,South,184,8.0,18.0,47,0.00,,,0.00,,2013-07-09 17:45:00,
2013-07-09 12:53:00,92.0,69.0,30.04,South,182,10.0,16.0,47,0.00,,,0.00,,2013-07-09 17:53:00,
2013-07-09 13:01:00,92.0,69.0,30.03,SW,224,6.0,13.0,47,0.00,,,0.00,,2013-07-09 18:01:00,
2013-07-09 13:11:00,92.0,68.0,30.03,SSE,161,10.0,16.0,46,0.00,,,0.00,,2013-07-09 18:11:00,
2013-07-09 13:22:00,92.0,67.0,30.03,South,184,6.0,12.0,44,0.00,,,0.00,,2013-07-09 18:22:00,
2013-07-09 13:32:00,93.0,68.0,30.03,SSE,149,6.0,13.0,44,0.00,,,0.00,,2013-07-09 18:32:00,
2013-07-09 13:42:00,94.0,67.0,30.03,SSW,211,6.0,14.0,41,0.00,,,0.00,,2013-07-09 18:42:00,
2013-07-09 13:52:00,94.0,67.0,30.02,SSE,156,5.0,12.0,41,0.00,,,0.00,,2013-07-09 18:52:00,
2013-07-09 14:01:00,94.0,65.0,30.02,South,185,6.0,16.0,39,0.00,,,0.00,,2013-07-09 19:01:00,
2013-07-09 14:11:00,95.0,66.0,30.01,SSE,158,8.0,15.0,39,0.00,,,0.00,,2013-07-09 19:11:00,
2013-07-09 14:22:00,95.0,64.0,30.01,South,178,10.0,20.0,36,0.00,,,0.00,,2013-07-09 19:22:00,
2013-07-09 14:33:00,96.0,64.0,30.00,South,186,2.0,10.0,35,0.00,,,0.00,,2013-07-09 19:33:00,
2013-07-09 14:42:00,96.0,63.0,30.00,South,181,7.0,16.0,34,0.00,,,0.00,,2013-07-09 19:42:00,
2013-07-09 14:52:00,95.0,63.0,29.99,South,182,5.0,18.0,35,0.00,,,0.00,,2013-07-09 19:52:00,
2013-07-09 16:01:00,98.0,64.0,29.97,South,171,7.0,14.0,33,0.00,,,0.00,,2013-07-09 21:01:00,
2013-07-09 16:22:00,98.0,63.0,29.96,SSE,163,10.0,16.0,32,0.00,,,0.00,,2013-07-09 21:22:00,
2013-07-09 17:01:00,97.0,63.0,29.95,SSE,168,6.0,12.0,33,0.00,,,0.00,,2013-07-09 22:01:00,
2013-07-09 17:11:00,98.0,64.0,29.94,SSW,197,11.0,18.0,33,0.00,,,0.00,,2013-07-09 22:11:00,
2013-07-09 17:22:00,98.0,64.0,29.94,South,188,7.0,12.0,33,0.00,,,0.00,,2013-07-09 22:22:00,
2013-07-09 18:02:00,98.0,64.0,29.93,SSE,164,5.0,13.0,33,0.00,,,0.00,,2013-07-09 23:02:00,
2013-07-09 19:01:00,98.0,66.0,29.91,SE,146,9.0,16.0,36,0.00,,,0.00,,2013-07-10 00:01:00,
2013-07-09 19:33:00,97.0,66.0,29.91,SE,142,7.0,16.0,37,0.00,,,0.00,,2013-07-10 00:33:00,
2013-07-09 19:42:00,97.0,67.0,29.91,SSE,147,7.0,14.0,38,0.00,,,0.00,,2013-07-10 00:42:00,
2013-07-09 20:01:00,96.0,67.0,29.91,SSE,147,7.0,13.0,39,0.00,,,0.00,,2013-07-10 01:01:00,
2013-07-09 20:11:00,96.0,67.0,29.91,SE,138,7.0,16.0,39,0.00,,,0.00,,2013-07-10 01:11:00,
2013-07-09 20:22:00,96.0,68.0,29.90,SSE,153,9.0,18.0,40,0.00,,,0.00,,2013-07-10 01:22:00,
2013-07-09 20:33:00,95.0,67.0,29.90,SSE,154,7.0,12.0,40,0.00,,,0.00,,2013-07-10 01:33:00,
2013-07-09 20:52:00,94.0,67.0,29.90,SSE,155,6.0,10.0,41,0.00,,,0.00,,2013-07-10 01:52:00,
2013-07-09 21:01:00,94.0,67.0,29.91,SSE,155,6.0,12.0,42,0.00,,,0.00,,2013-07-10 02:01:00,
2013-07-09 21:11:00,93.0,66.0,29.91,SSE,153,5.0,13.0,42,0.00,,,0.00,,2013-07-10 02:11:00,
2013-07-09 21:22:00,93.0,66.0,29.91,SE,144,6.0,12.0,42,0.00,,,0.00,,2013-07-10 02:22:00,
2013-07-09 21:34:00,92.0,66.0,29.91,SE,141,6.0,10.0,42,0.00,,,0.00,,2013-07-10 02:34:00,
2013-07-09 21:43:00,92.0,66.0,29.91,SE,145,5.0,8.0,43,0.00,,,0.00,,2013-07-10 02:43:00,
2013-07-09 21:53:00,92.0,66.0,29.91,SE,145,5.0,8.0,43,0.00,,,0.00,,2013-07-10 02:53:00,
2013-07-09 22:01:00,91.0,66.0,29.92,SE,146,3.0,12.0,44,0.00,,,0.00,,2013-07-10 03:01:00,
2013-07-09 22:11:00,91.0,67.0,29.93,SE,145,2.0,7.0,45,0.00,,,0.00,,2013-07-10 03:11:00,
2013-07-09 22:22:00,90.0,66.0,29.93,SE,145,1.0,6.0,46,0.00,,,0.00,,2013-07-10 03:22:00,
2013-07-09 22:32:00,90.0,66.0,29.93,SE,145,2.0,5.0,46,0.00,,,0.00,,2013-07-10 03:32:00,
2013-07-09 22:43:00,89.0,66.0,29.93,SE,145,2.0,5.0,47,0.00,,,0.00,,2013-07-10 03:43:00,
2013-07-09 22:52:00,89.0,67.0,29.93,SE,145,3.0,7.0,48,0.00,,,0.00,,2013-07-10 03:52:00,
2013-07-09 23:01:00,89.0,67.0,29.93,SE,145,1.0,3.0,48,0.00,,,0.00,,2013-07-10 04:01:00,
2013-07-09 23:11:00,88.0,66.0,29.93,SE,145,2.0,6.0,49,0.00,,,0.00,,2013-07-10 04:11:00,
2013-07-09 23:22:00,88.0,66.0,29.94,SE,145,3.0,5.0,49,0.00,,,0.00,,2013-07-10 04:22:00,
2013-07-09 23:32:00,87.0,66.0,29.94,SE,145,2.0,6.0,50,0.00,,,0.00,,2013-07-10 04:32:00,
2013-07-09 23:43:00,87.0,67.0,29.94,SE,146,3.0,6.0,51,0.00,,,0.00,,2013-07-10 04:43:00,
2013-07-09 23:52:00,87.0,67.0,29.95,SE,145,2.0,5.0,51,0.00,,,0.00,,2013-07-10 04:52:00,